Header for Extended Forecast Station List Page

Search by: ID | Name | Date | Parm | Value | Avg | % Avg
Sort by: ID | Name | Date | Parm | Value | Avg | % Avg

Enter search or view all records.

Click on id for station plot
#IDNameDateParmValueAvg% Avg
0LYDM8KOOTENAI-LIBBY DAM11-22-2021INFLOW (KAF)1090836130
1LEOI1KOOTENAI-AT LEONIA11-22-2021DISCHARGE (KAF)31422481127
2BFEI1KOOTENAI-AT BONNERS FERRY11-22-2021STAGE (FT)MMM
3FCFM8NF FLATHEAD-NEAR COLUMBIA FALLS11-22-2021DISCHARGE (KAF)341174196
4WGCM8MF FLATHEAD-NEAR WEST GLACIER11-22-2021DISCHARGE (KAF)215155139
5HHWM8SF FLATHEAD-HUNGRY HORSE DAM11-22-2021INFLOW (KAF)258238108
6CFMM8FLATHEAD-AT COLUMBIA FALLS11-22-2021DISCHARGE (KAF)1040944110
7DLGM8CLARK FORK-AT DEER LODGE11-22-2021DISCHARGE (KAF)465190
8DRMM8CLARK FORK-NR DRUMMOND11-22-2021DISCHARGE (KAF)10912488
9RCCM8ROCK CREEK-NEAR CLINTON11-22-2021DISCHARGE (KAF)5245115
10BONM8BLACKFOOT-NEAR BONNER11-22-2021DISCHARGE (KAF)157136115
11ABOM8CLARK FORK-ABOVE MISSOULA11-22-2021DISCHARGE (KAF)331328101
12BITM8BITTERROOT-NEAR MISSOULA11-22-2021DISCHARGE (KAF)18820592
13BELM8CLARK FORK-BELOW MISSOULA11-22-2021DISCHARGE (KAF)52054296
14STRM8ST. REGIS-NEAR ST. REGIS11-22-2021DISCHARGE (KAF)234352
15SRGM8CLARK FORK-AT ST REGIS11-22-2021DISCHARGE (KAF)63772588
16KERM8FLATHEAD-SELI’Š KSANKA QLISPE’ DAM11-22-2021INFLOW (KAF)1186139385
17NOXM8CLARK FORK-NOXON RAPIDS DAM11-22-2021INFLOW (KAF)2941311295
18CABI1CLARK FORK-CABINET GORGE DAM11-22-2021INFLOW (KAF)3207354890
19PRTI1PRIEST-NEAR PRIEST RIVER11-22-2021DISCHARGE (KAF)16122970
20ALFW1PEND OREILLE-ALBENI FALLS DAM11-22-2021INFLOW (KAF)3493399487
21HOPI1PEND OREILLE-PEND OREILLE LAKE NR HOPE11-22-2021LAKE ELEVATION (FT)MMM
22COEI1COEUR D ALENE-COEUR D ALENE LAKE11-22-2021INFLOW (KAF)751110068
23SPOW1SPOKANE-AT SPOKANE11-22-2021DISCHARGE (KAF)748122861
24LLKW1SPOKANE-AT LONGLAKE11-22-2021INFLOW (KAF)1016147869
25SATI1ST MARIES-NEAR SANTA11-22-2021DISCHARGE (KAF)216334
26SJMI1ST JOE-AT ST MARIES11-22-2021STAGE (FT)MMM
27CIBW1COLUMBIA-AT INTL BOUNDARY11-22-2021DISCHARGE (KAF)2210619958111
28LAUW1KETTLE-AT LAURIER11-22-2021DISCHARGE (KAF)11413783
29GCDW1COLUMBIA-GRAND COULEE DAM11-22-2021INFLOW (KAF)2327221578108
30CHJW1COLUMBIA-CHIEF JOSEPH DAM11-22-2021INFLOW (KAF)2547823785107
31TONW1OKANOGAN-NEAR TONASKET11-22-2021DISCHARGE (KAF)460305151
32PATW1METHOW-NEAR PATEROS11-22-2021DISCHARGE (KAF)142105136
33WELW1COLUMBIA-WELLS DAM11-22-2021INFLOW (KAF)2606324415107
34CHDW1CHELAN-LAKE CHELAN DAM11-22-2021INFLOW (KAF)395197200
35RRHW1COLUMBIA-ROCKY REACH DAM11-22-2021INFLOW (KAF)2683424822108
36ARDW1ENTIAT-NEAR ARDENVOIR11-22-2021DISCHARGE (KAF)4525178
37PESW1WENATCHEE-AT PESHASTIN11-22-2021DISCHARGE (KAF)508334152
38WANW1COLUMBIA-WANAPUM DAM11-22-2021INFLOW (KAF)2740125433108
39PRWW1COLUMBIA-PRIEST RAPIDS DAM11-22-2021INFLOW (KAF)2739025508107
40KEDW1YAKIMA-KEECHELUS LAKE11-22-2021INFLOW (KAF)6053114
41KADW1KACHESS-KACHESS DAM11-22-2021INFLOW (KAF)5951117
42EASW1YAKIMA-AT EASTON11-22-2021DISCHARGE (KAF)727991
43CLUW1CLE ELUM-CLE ELUM LAKE11-22-2021INFLOW (KAF)149115130
44TNAW1TEANAWAY-BELOW FORKS11-22-2021DISCHARGE (KAF)6555118
45UMTW1YAKIMA-AT UMTANUM11-22-2021DISCHARGE (KAF)30032891
46BUDW1BUMPING-BUMPING LAKE DAM11-22-2021INFLOW (KAF)4540113
47CLFW1NACHES-NEAR CLIFFDEL11-22-2021DISCHARGE (KAF)12512898
48RILW1TIETON-RIMROCK LAKE NEAR RIMROCK11-22-2021INFLOW (KAF)8075106
49NACW1NACHES-NEAR NACHES11-22-2021DISCHARGE (KAF)13017276
50PARW1YAKIMA-NEAR PARKER11-22-2021DISCHARGE (KAF)54156596
51KIOW1YAKIMA-AT KIONA11-22-2021DISCHARGE (KAF)73480791
52IPDI1HENRYS FORK-ISLAND PARK DAM11-22-2021INFLOW (KAF)7810575
53CHEI1FALL RIVER-NEAR CHESTER11-22-2021DISCHARGE (KAF)10111489
54ANTI1HENRYS FORK-AT ST. ANTHONY11-22-2021DISCHARGE (KAF)31537883
55TEAI1TETON-NEAR ST. ANTHONY11-22-2021DISCHARGE (KAF)769679
56REXI1HENRYS FORK-AT REXBURG11-22-2021DISCHARGE (KAF)37743587
57JLKW4SNAKE-JACKSON LAKE AT DAM11-22-2021INFLOW (KAF)9311581
58JKSW4SNAKE-NEAR JACKSON11-22-2021DISCHARGE (KAF)24531478
59ALPW4SNAKE-NEAR ALPINE11-22-2021DISCHARGE (KAF)30737582
60PLDI1SF SNAKE-PALISADES DAM11-22-2021INFLOW (KAF)47158081
61HEII1SNAKE-NEAR HEISE11-22-2021DISCHARGE (KAF)35137893
62RIDI1WILLOW CREEK-RIRIE DAM11-22-2021INFLOW (KAF)81365
63SIFI1SNAKE-AB EAGLE ROCK NR IDAHO FALLS11-22-2021DISCHARGE (KAF)56467184
64SHYI1SNAKE-NEAR SHELLEY11-22-2021DISCHARGE (KAF)54467681
65SNAI1SNAKE-AT BLACKFOOT11-22-2021DISCHARGE (KAF)46959179
66BFTI1SNAKE-NEAR BLACKFOOT11-22-2021DISCHARGE (KAF)47257982
67PIHI1PORTNEUF-AT POCATELLO11-22-2021DISCHARGE (KAF)385370
68AFRI1SNAKE-AMERICAN FALLS RESERVOIR11-22-2021INFLOW (KAF)1117119693
69MILI1SNAKE-AT MILNER11-22-2021DISCHARGE (KAF)M55M
70HOTI1BRUNEAU-NEAR HOT SPRINGS11-22-2021DISCHARGE (KAF)193062
71SWAI1SNAKE-BELOW SWAN FALLS11-22-2021DISCHARGE (KAF)1710187491
72HWRI1BIG LOST-AT HOWELL RANCH NEAR CHILLY11-22-2021DISCHARGE (KAF)151885
73MACI1BIG LOST-MACKAY RESERVOIR NEAR MACKAY11-22-2021INFLOW (KAF)283973
74HALI1BIG WOOD-AT HAILEY11-22-2021DISCHARGE (KAF)253768
75MAGI1BIG WOOD-MAGIC DAM11-22-2021INFLOW (KAF)112542
76LWRI1LITTLE WOOD-LITTLE WOOD DAM11-22-2021INFLOW (KAF)1614115
77OWYO3OWYHEE-OWYHEE DAM11-22-2021INFLOW (KAF)230136169
78ARAI1SF BOISE-ANDERSON RANCH DAM11-22-2021INFLOW (KAF)697987
79LUCI1BOISE-LUCKY PEAK DAM11-22-2021INFLOW (KAF)13916485
80BIGI1BOISE-AT GLENWOOD BRIDGE11-22-2021DISCHARGE (KAF)11564179
81PARI1BOISE-NEAR PARMA11-22-2021DISCHARGE (KAF)273204134
82WRMO3MALHEUR-WARM SPRINGS DAM11-22-2021INFLOW (KAF)253571
83BERO3MALHEUR-AGENCY VALLEY DAM11-22-2021INFLOW (KAF)132165
84BULO3BULLY CREEK-BULLY CREEK DAM11-22-2021INFLOW (KAF)284682
85CSDI1NF PAYETTE-CASCADE DAM11-22-2021INFLOW (KAF)779978
86DEDI1DEADWOOD-NEAR LOWMAN11-22-2021INFLOW (KAF)141875
87EMMI1PAYETTE-NEAR EMMETT11-22-2021DISCHARGE (KAF)31533394
88WSRI1WEISER-NEAR WEISER11-22-2021DISCHARGE (KAF)15816695
89WEII1SNAKE-AT WEISER11-22-2021DISCHARGE (KAF)2729291394
90BRNI1SNAKE-BROWNLEE DAM11-22-2021INFLOW (KAF)2966313195
91WHBI1SALMON-AT WHITEBIRD11-22-2021DISCHARGE (KAF)920103989
92TRYO3GRANDE RONDE-TROY11-22-2021DISCHARGE (KAF)28745363
93ANAW1SNAKE-NEAR ANATONE11-22-2021DISCHARGE (KAF)4212530479
94ORFI1CLEARWATER-AT OROFINO11-22-2021DISCHARGE (KAF)53891959
95DWRI1NF CLEARWATER-DWORSHAK DAM11-22-2021INFLOW (KAF)48073565
96SPDI1CLEARWATER-AT SPALDING11-22-2021DISCHARGE (KAF)1071173062
97LGDW1SNAKE-LOWER GRANITE DAM11-22-2021INFLOW (KAF)5283709075
98LGSW1SNAKE-LITTLE GOOSE DAM11-22-2021INFLOW (KAF)5283712474
99LMNW1SNAKE-LOWER MONUMENTAL DAM11-22-2021INFLOW (KAF)5535724276
100IHDW1SNAKE-ICE HARBOR DAM11-22-2021INFLOW (KAF)5535727076
101TCHW1WALLA WALLA-NEAR TOUCHET11-22-2021DISCHARGE (KAF)13118670
102MCDW1COLUMBIA-MCNARY DAM11-22-2021INFLOW (KAF)337273397699
103GIBO3UMATILLA-NEAR GIBBON11-22-2021DISCHARGE (KAF)445186
104PDTO3UMATILLA-AT PENDLETON11-22-2021DISCHARGE (KAF)11413088
105MYKO3MCKAY CREEK-NEAR PILOT ROCK11-22-2021DISCHARGE (KAF)3731120
106UMAO3UMATILLA-NEAR UMATILLA11-22-2021DISCHARGE (KAF)129122105
107MONO3NF JOHN DAY-AT MONUMENT11-22-2021DISCHARGE (KAF)10920254
108SERO3JOHN DAY-AT SERVICE CK11-22-2021DISCHARGE (KAF)18832258
109JDAO3COLUMBIA-JOHN DAY DAM11-22-2021INFLOW (KAF)351833548199
110MODO3DESCHUTES-AT MOODY NR BIGGS11-22-2021DISCHARGE (KAF)14241399102
111TDAO3COLUMBIA-THE DALLES DAM11-22-2021INFLOW (KAF)358563607399
112PITW1KLICKITAT-NEAR PITT11-22-2021DISCHARGE (KAF)448357126
113HODO3HOOD-NEAR TUCKER BRIDGE11-22-2021DISCHARGE (KAF)290244119
114UNDW1WHITE SALMON-NEAR UNDERWOOD11-22-2021DISCHARGE (KAF)309276112
115BONO3COLUMBIA-BONNEVILLE DAM11-22-2021INFLOW (KAF)369053775898